User: anonymous   Login
Location: Unspecified
(0.0000°N, 0.0000°E)
Time: 20:04:31
(UTC+00:00)
Language:

STARLINK-34968 - Orbit

View from above orbital plane
View from above orbital plane
View from above satellite
View from above satellite

Ground track
Ground track

The orbit is defined by the following mean orbital elements,

1 65276U          26145.60132509 +.00000000 +00000-0 +20831-3 0 00000
2 65276  97.4462 198.0932 0002930 127.6535 232.4959 15.05656588    08
Epoch (UTC): 25 May 2026 14:25:54
Eccentricity: 0.0002930
inclination: 97.4462°
perigee height: 547 km
apogee height: 552 km
right ascension of ascending node: 198.0932°
argument of perigee: 127.6535°
revolutions per day: 15.05656588
mean anomaly at epoch: 232.4959°

The dashed part of the orbit path shows where the satellite is in the earth's shadow,  

DLR